Weather History for KCGS - March, 2013

Change the Weather History Date:

Wednesday, March 27, 2013

  Actual Average Record
Temperature  
Mean Temperature 46 °F -  
Max Temperature 52 °F 58 °F 83 °F (1949)
Min Temperature 40 °F 36 °F 18 °F (1955)
Degree Days  
Heating Degree Days 19    
Moisture  
Dew Point 30 °F    
Average Humidity 55    
Maximum Humidity 76    
Minimum Humidity 39    
Precipitation  
Precipitation 0.00 in - - ()
Sea Level Pressure  
Sea Level Pressure 30.05 in    
Wind  
Wind Speed 9 mph (WNW)    
Max Wind Speed 18 mph    
Max Gust Speed 25 mph    
Visibility 10 miles    
Events      
Averages and records for this station are not official NWS values.
T = Trace of Precipitation, MM = Missing Value Source: NWS Daily Summary

Daily Weather History Graph

Daily Weather History Graph

Search for Another Location

Airport or City:

Trip Planner

Search our weather history database for the weather conditions in past years. The results will help you decide how hot, cold, wet, or windy it might be!

Date:

Astronomy

Mar. 27, 2013 Rise Set
Actual Time 6:59 AM EDT 7:26 PM EDT
Civil Twilight 6:33 AM EDT 7:53 PM EDT
Nautical Twilight 6:01 AM EDT 8:25 PM EDT
Astronomical Twilight 5:29 AM EDT 8:57 PM EDT
Moon 8:07 PM EDT (3/27) 6:49 AM EDT (3/27)
Length of Visible Light 13h 20m
Length of Day
12h 26m
Full, 100% of the Moon is Illuminated
Mar 27
Full
Apr 3
Last Quarter
Apr 10
New
Apr 18
First Quarter
Apr 25
Full

Hourly Weather History & Observations

Time (EDT) Temp. Windchill Dew Point Humidity Pressure Visibility Wind Dir Wind Speed Gust Speed Precip Events Conditions
12:00 AM 46.2 °F 42.2 °F 30.0 °F 53% 29.99 in 10.0 mi WNW 8.1 mph - N/A   Overcast
12:20 AM 46.0 °F 41.0 °F 30.4 °F 54% 29.99 in 10.0 mi NW 10.4 mph 17.3 mph N/A   Overcast
12:40 AM 45.7 °F 39.8 °F 30.9 °F 56% 29.99 in 10.0 mi NW 12.7 mph - N/A   Overcast
1:00 AM 45.0 °F 40.6 °F 30.9 °F 58% 29.99 in 10.0 mi WNW 8.1 mph - N/A   Overcast
1:20 AM 44.6 °F 38.8 °F 30.9 °F 59% 29.99 in 10.0 mi WNW 11.5 mph 16.1 mph N/A   Mostly Cloudy
1:40 AM 44.6 °F 40.2 °F 31.1 °F 59% 29.99 in 10.0 mi NW 8.1 mph - N/A   Scattered Clouds
2:00 AM 43.9 °F 40.5 °F 31.1 °F 61% 29.99 in 10.0 mi NW 5.8 mph - N/A   Mostly Cloudy
2:20 AM 43.7 °F 39.1 °F 31.1 °F 61% 29.99 in 10.0 mi NW 8.1 mph - N/A   Mostly Cloudy
2:40 AM 43.5 °F 40.1 °F 31.1 °F 62% 29.99 in 10.0 mi NW 5.8 mph - N/A   Scattered Clouds
3:00 AM 43.0 °F 39.5 °F 31.1 °F 63% 29.99 in 10.0 mi West 5.8 mph - N/A   Mostly Cloudy
3:20 AM 42.8 °F 38.6 °F 31.1 °F 63% 29.99 in 10.0 mi WNW 6.9 mph - N/A   Scattered Clouds
3:40 AM 42.4 °F 38.1 °F 31.1 °F 64% 29.99 in 10.0 mi WNW 6.9 mph - N/A   Clear
4:00 AM 42.6 °F 37.8 °F 30.9 °F 63% 29.99 in 10.0 mi NW 8.1 mph - N/A   Scattered Clouds
4:20 AM 42.4 °F 38.8 °F 30.9 °F 64% 29.99 in 10.0 mi West 5.8 mph - N/A   Overcast
4:40 AM 42.4 °F 39.6 °F 30.7 °F 63% 30.00 in 10.0 mi WNW 4.6 mph - N/A   Mostly Cloudy
5:00 AM 42.1 °F 37.7 °F 30.6 °F 64% 30.00 in 10.0 mi West 6.9 mph - N/A   Scattered Clouds
5:20 AM 41.9 °F 40.0 °F 30.9 °F 65% 30.01 in 10.0 mi WSW 3.5 mph - N/A   Scattered Clouds
5:40 AM 41.4 °F 39.4 °F 30.7 °F 66% 30.01 in 10.0 mi WSW 3.5 mph - N/A   Scattered Clouds
6:00 AM 41.4 °F 39.4 °F 30.7 °F 66% 30.01 in 10.0 mi WNW 3.5 mph - N/A   Clear
6:20 AM 41.0 °F 38.0 °F 30.7 °F 67% 30.02 in 10.0 mi WNW 4.6 mph - N/A   Mostly Cloudy
7:00 AM 40.6 °F 34.3 °F 30.6 °F 67% 30.03 in 10.0 mi WNW 10.4 mph 17.3 mph N/A   Clear
7:20 AM 40.5 °F 35.1 °F 30.6 °F 68% 30.03 in 10.0 mi WNW 8.1 mph - N/A   Clear
7:40 AM 40.3 °F 34.9 °F 30.2 °F 67% 30.04 in 10.0 mi West 8.1 mph - N/A   Clear
8:00 AM 41.0 °F 35.8 °F 30.2 °F 65% 30.05 in 10.0 mi West 8.1 mph - N/A   Clear
8:20 AM 41.9 °F 36.9 °F 30.6 °F 64% 30.06 in 10.0 mi West 8.1 mph - N/A   Clear
8:40 AM 43.0 °F 38.8 °F 30.6 °F 62% 30.06 in 10.0 mi WNW 6.9 mph - N/A   Clear
9:00 AM 43.9 °F 37.9 °F 30.4 °F 59% 30.06 in 10.0 mi WNW 11.5 mph 21.9 mph N/A   Clear
9:20 AM 45.1 °F 41.4 °F 30.9 °F 58% 30.07 in 10.0 mi WNW 6.9 mph 16.1 mph N/A   Clear
9:40 AM 45.5 °F 40.8 °F 30.4 °F 56% 30.07 in 10.0 mi WNW 9.2 mph 19.6 mph N/A   Scattered Clouds
10:00 AM 46.4 °F 41.5 °F 30.6 °F 54% 30.07 in 10.0 mi NNW 10.4 mph 18.4 mph N/A   Scattered Clouds
10:20 AM 47.5 °F - 30.6 °F 52% 30.07 in 10.0 mi NW 13.8 mph 19.6 mph N/A   Clear
11:05 AM 48.4 °F - 29.8 °F 49% 30.07 in 10.0 mi WNW 18.4 mph 24.2 mph N/A   Clear
11:25 AM 49.1 °F - 30.0 °F 48% 30.07 in 10.0 mi NW 16.1 mph 19.6 mph N/A   Scattered Clouds
11:45 AM 48.7 °F - 29.5 °F 47% 30.07 in 10.0 mi NW 13.8 mph 23.0 mph N/A   Mostly Cloudy
12:05 PM 49.6 °F - 30.0 °F 47% 30.07 in 10.0 mi WNW 12.7 mph 19.6 mph N/A   Scattered Clouds
12:25 PM 49.8 °F - 29.5 °F 46% 30.06 in 10.0 mi WNW 13.8 mph 21.9 mph N/A   Scattered Clouds
1:05 PM 50.4 °F - 29.1 °F 44% 30.05 in 10.0 mi West 13.8 mph 25.3 mph N/A   Overcast
1:25 PM 52.2 °F - 29.3 °F 41% 30.05 in 10.0 mi West 15.0 mph 24.2 mph N/A   Mostly Cloudy
1:45 PM 51.6 °F - 28.2 °F 41% 30.05 in 10.0 mi NW 10.4 mph 24.2 mph N/A   Mostly Cloudy
2:05 PM 50.5 °F - 27.1 °F 40% 30.04 in 10.0 mi WNW 15.0 mph 24.2 mph N/A   Overcast
2:25 PM 49.6 °F - 27.0 °F 41% 30.04 in 10.0 mi West 10.4 mph 21.9 mph N/A   Overcast
2:45 PM 43.7 °F 38.6 °F 36.5 °F 76% 30.06 in 7.0 mi NNW 9.2 mph 24.2 mph N/A   Overcast
3:05 PM 48.2 °F - 35.1 °F 60% 30.06 in 10.0 mi WNW 10.4 mph 17.3 mph N/A   Mostly Cloudy
3:25 PM 49.1 °F - 30.9 °F 50% 30.05 in 10.0 mi NNW 10.4 mph 18.4 mph N/A   Mostly Cloudy
3:45 PM 50.4 °F - 31.6 °F 49% 30.06 in 10.0 mi NNW 13.8 mph 19.6 mph N/A   Overcast
4:05 PM 47.8 °F - 31.8 °F 54% 30.06 in 10.0 mi WNW 17.3 mph 25.3 mph N/A   Overcast
4:25 PM 47.7 °F - 32.2 °F 55% 30.04 in 10.0 mi West 10.4 mph - N/A   Mostly Cloudy
4:45 PM 51.1 °F - 29.5 °F 43% 30.04 in 10.0 mi WNW 16.1 mph 20.7 mph N/A   Scattered Clouds
5:05 PM 46.6 °F - 33.8 °F 61% 30.05 in 10.0 mi North 11.5 mph 23.0 mph N/A   Mostly Cloudy
5:25 PM 48.0 °F - 30.6 °F 51% 30.05 in 10.0 mi NW 12.7 mph 17.3 mph N/A   Overcast
5:45 PM 48.0 °F - 29.7 °F 49% 30.05 in 10.0 mi NW 5.8 mph - N/A   Mostly Cloudy
6:05 PM 49.6 °F - 26.8 °F 41% 30.05 in 10.0 mi WNW 11.5 mph 18.4 mph N/A   Mostly Cloudy
6:25 PM 49.5 °F - 25.3 °F 39% 30.06 in 10.0 mi WNW 12.7 mph 17.3 mph N/A   Mostly Cloudy
7:05 PM 49.1 °F - 25.0 °F 39% 30.07 in 10.0 mi NW 5.8 mph - N/A   Scattered Clouds
7:25 PM 48.2 °F - 24.8 °F 40% 30.07 in 10.0 mi WNW 9.2 mph 16.1 mph N/A   Scattered Clouds
7:45 PM 47.8 °F - 25.2 °F 41% 30.08 in 10.0 mi WNW 8.1 mph 16.1 mph N/A   Scattered Clouds
8:05 PM 47.1 °F - 27.5 °F 47% 30.09 in 10.0 mi WNW 10.4 mph - N/A   Clear
8:25 PM 46.4 °F 42.9 °F 28.9 °F 51% 30.09 in 10.0 mi West 6.9 mph - N/A   Clear
9:05 PM 45.9 °F 42.3 °F 28.4 °F 51% 30.10 in 10.0 mi West 6.9 mph - N/A   Clear
9:25 PM 45.5 °F 41.8 °F 28.4 °F 51% 30.11 in 10.0 mi West 6.9 mph - N/A   Clear
9:45 PM 45.0 °F 41.8 °F 28.6 °F 53% 30.12 in 10.0 mi West 5.8 mph - N/A   Clear
10:05 PM 44.6 °F 40.7 °F 28.4 °F 53% 30.12 in 10.0 mi West 6.9 mph - N/A   Clear
10:25 PM 44.1 °F 41.5 °F 28.4 °F 54% 30.12 in 10.0 mi West 4.6 mph - N/A   Clear
10:45 PM 43.9 °F 39.9 °F 28.8 °F 55% 30.12 in 10.0 mi West 6.9 mph - N/A   Clear
11:05 PM 43.7 °F 38.6 °F 28.9 °F 56% 30.12 in 10.0 mi WNW 9.2 mph - N/A   Scattered Clouds
11:25 PM 43.9 °F 39.3 °F 29.1 °F 56% 30.12 in 10.0 mi West 8.1 mph - N/A   Mostly Cloudy
11:45 PM 43.5 °F 40.1 °F 29.1 °F 57% 30.12 in 10.0 mi West 5.8 mph - N/A   Scattered Clouds